[[{"header":{"parameterUnit":"m.s-1","parameterCategory":1,"la1":30.2991,"la2":30.254,"lo1":-89.0895,"lo2":-89.0444,"dy":0.0017,"dx":0.0017,"nx":28,"ny":28,"refTime":"2025-08-16T03:00:00:Z","depth":0,"parameterNumber":2,"parameterNumberName":"U-component_of_WINDS"},"data":[0,0,0,0,0,0,0,0,0,0,0,0,0,0,0,0,0,0,0,0,0,0,0,0,0,0,0,0,0,0,0,0,0,0,0,0,0,0,0,0,0,0,0,0,0,0,0,0,0,0,0,0,0,0,0,0,0,0,1.7271,1.7271,0,1.7341,1.7342,1.7343,1.7327,1.7326,1.7325,1.7323,1.7396,1.7399,1.7402,0,0,0,0,0,0,0,0,0,0,0,0,0,1.7123,1.7126,1.7271,1.7271,1.7272,1.7341,1.7342,1.7343,1.7328,1.7326,1.7324,1.7323,1.7395,1.7398,1.7402,0,0,0,0,0,0,0,0,0,0,0,0,0,1.719,1.7127,1.727,1.7273,1.7274,1.7341,1.7342,1.7343,1.7328,1.7326,1.7324,1.7322,1.7394,1.7398,1.7403,1.7472,0,0,1.7417,1.7419,0,0,0,0,0,0,0,0,1.7186,1.7195,1.7272,1.7273,1.7274,1.7323,1.7317,1.7386,1.7328,1.7307,1.7323,1.7321,1.7373,1.738,1.7397,1.7475,1.7478,1.7418,1.7421,1.7423,1.7424,0,0,0,0,0,0,0,1.7182,1.7192,1.7298,1.7273,1.7274,1.7271,1.7278,1.733,1.7351,1.7309,1.7308,1.7317,1.7374,1.7393,1.7399,1.7479,1.7418,1.7422,1.7425,1.7426,1.7618,1.762,0,0,0,0,0,0,1.7176,1.7189,1.7296,1.7301,1.7224,1.7275,1.7283,1.731,1.735,1.7354,1.7318,1.7316,1.7386,1.7393,1.7401,1.7485,1.7423,1.7427,1.743,1.7616,1.7619,1.7621,0,0,0,0,0,0,1.7173,1.7186,1.7293,1.7244,1.7258,1.728,1.7309,1.7312,1.7331,1.7357,1.7361,1.7334,1.7384,1.7395,1.7454,1.7487,1.7429,1.7433,1.7613,1.7617,1.762,1.7653,0,0,0,0,0,0,1.7169,1.7185,1.7211,1.7245,1.726,1.7345,1.7311,1.7315,1.7339,1.7337,1.7373,1.7377,1.7384,1.7447,1.7459,1.7493,1.7437,1.761,1.7615,1.7619,1.7649,1.7657,1.7664,0,0,0,0,0,1.7163,1.7217,1.7212,1.7225,1.7294,1.7347,1.7356,1.7363,1.7342,1.7369,1.7385,1.7375,1.7482,1.7454,1.7467,1.7502,1.7608,1.7613,1.7618,1.7646,1.7655,1.7664,0,0,0,0,0,0,1.7186,1.7221,1.7216,1.7283,1.7312,1.7344,1.7378,1.7373,1.7409,1.7405,1.7411,1.742,1.7481,1.7498,1.7466,1.7572,1.7542,1.755,1.7558,1.7568,1.7575,1.757,1.7441,0,0,0,0,0,1.7198,1.7239,1.7268,1.7324,1.7339,1.7356,1.738,1.7382,1.7413,1.7425,1.7446,1.7477,1.7517,1.7543,1.7582,1.7651,1.7659,1.7682,1.769,1.7696,1.7703,1.7742,1.7752,1.7638,1.7638,1.7638,0,0,1.7225,1.7249,1.7274,1.7329,1.7352,1.7394,1.7366,1.7412,1.7443,1.7432,1.749,1.7507,1.7541,1.7606,1.7636,1.7622,1.7736,1.7702,1.7707,1.771,1.7748,1.7759,1.7768,1.7641,1.764,1.764,0,0,1.7294,1.7317,1.7366,1.739,1.7425,1.7437,1.7449,1.7482,1.7493,1.7552,1.7544,1.7582,1.7651,1.7676,1.7698,1.7779,1.7771,1.7791,1.783,1.7868,1.7877,1.7885,1.7914,1.7924,1.7798,1.7798,1.7798,0,1.7323,1.7385,1.7392,1.7439,1.7463,1.7455,1.7506,1.7529,1.7575,1.7592,1.7576,1.7663,1.7685,1.7757,1.7777,1.7794,1.7809,1.7787,1.7875,1.7883,1.7891,1.7919,1.793,1.78,1.78,1.7799,1.7799,0,1.7419,1.7463,1.7498,1.7544,1.7572,1.762,1.7634,1.7662,1.7663,1.7677,1.7737,1.7764,1.7808,1.7825,1.7826,1.7897,1.7887,1.7873,1.7844,1.7904,1.793,1.7941,1.7803,1.7802,1.7802,1.7801,0,0,1.7503,1.7553,1.7566,1.7586,1.7626,1.766,1.7708,1.7752,1.7776,1.7808,1.7849,1.7909,1.7896,1.7921,1.7924,1.7958,1.8021,1.7939,1.794,1.7954,1.8102,1.8112,1.8124,1.8016,1.8018,1.802,1.8099,0,1.7577,1.7662,1.767,1.7746,1.7787,1.7781,1.7823,1.7852,1.7866,1.7903,1.7919,1.7961,1.7941,1.7956,1.7988,1.8006,1.8051,1.8001,1.8055,1.8056,1.8046,1.8138,1.8149,1.8223,1.8109,1.8111,1.8112,0,1.7674,1.7709,1.779,1.7824,1.7842,1.788,1.7921,1.7956,1.7989,1.7997,1.8025,1.8025,1.8075,1.8044,1.8114,1.808,1.8103,1.8115,1.8118,1.8123,1.8088,1.8146,1.8246,1.8257,1.8129,1.8127,1.8126,0,1.7728,1.7796,1.7853,1.7871,1.7913,1.794,1.7958,1.7989,1.8015,1.8051,1.8068,1.811,1.8133,1.8165,1.8176,1.8152,1.8246,1.8215,1.8254,1.8254,1.8274,1.8272,1.8379,1.8288,1.8288,1.8288,1.8288,0,1.7809,1.7858,1.7878,1.7914,1.7969,1.7978,1.8033,1.805,1.8078,1.8117,1.8115,1.8151,1.8164,1.8203,1.8212,1.8269,1.8279,1.8287,1.8289,1.8287,1.8286,1.8302,1.8297,1.8291,1.829,1.829,1.8289,0,1.7878,1.7894,1.7956,1.799,1.8,1.804,1.807,1.8104,1.8118,1.8167,1.8179,1.8201,1.8247,1.8261,1.8317,1.8323,1.8389,1.8386,1.8378,1.8378,1.8416,1.8413,1.8537,1.8554,1.8452,1.8453,1.8454,0,1.7929,1.7967,1.8006,1.8032,1.8052,1.8093,1.812,1.8131,1.8159,1.82,1.823,1.8275,1.8312,1.8386,1.8407,1.8449,1.8447,1.8488,1.8454,1.8451,1.8448,1.8446,1.845,1.8494,1.8495,1.8496,1.8497,0,1.8017,1.8023,1.8062,1.8104,1.8136,1.817,1.8202,1.8223,1.8239,1.8271,1.8317,1.8346,1.8403,1.8448,1.8492,1.8511,1.8507,1.8508,1.8519,1.8518,1.8511,1.8516,1.8396,1.8505,1.8504,1.8503,1.8503,1.8503,1.8079,1.8113,1.8146,1.819,1.8215,1.8246,1.828,1.8299,1.8338,1.8385,1.8389,1.844,1.8473,1.8531,1.8553,1.8593,1.8582,1.8598,1.8602,1.8606,1.8609,1.8505,1.8601,1.8601,1.8601,1.8601,1.8601,0,1.8167,1.8189,1.8229,1.8274,1.8309,1.8302,1.8338,1.8367,1.8412,1.8444,1.848,1.8535,1.8579,1.8604,1.8649,1.8676,1.8675,1.8687,1.8685,1.869,1.8617,1.8603,1.8687,1.8687,1.8687,1.8687,1.8687,1.8687,1.8217,1.8275,1.8285,1.8355,1.8376,1.8426,1.8447,1.8476,1.8501,1.8562,1.8599,1.8615,1.8644,1.8691,1.8732,1.8738,1.8755,1.8768,1.8773,1.8704,1.8695,1.8687,1.8674,1.8772,1.8772,1.8843,1.8844,1.8844]},{"header":{"parameterUnit":"m.s-1","parameterCategory":1,"la1":30.2991,"la2":30.254,"lo1":-89.0895,"lo2":-89.0444,"dy":0.0017,"dx":0.0017,"nx":28,"ny":28,"refTime":"2025-08-16T03:00:00:Z","depth":0,"parameterNumber":3,"parameterNumberName":"V-component_of_WINDS"},"data":[0,0,0,0,0,0,0,0,0,0,0,0,0,0,0,0,0,0,0,0,0,0,0,0,0,0,0,0,0,0,0,0,0,0,0,0,0,0,0,0,0,0,0,0,0,0,0,0,0,0,0,0,0,0,0,0,0,0,-0.448,-0.448,0,-0.4471,-0.447,-0.447,-0.4488,-0.4489,-0.4489,-0.449,-0.4478,-0.4477,-0.4476,0,0,0,0,0,0,0,0,0,0,0,0,0,-0.4514,-0.4513,-0.448,-0.448,-0.448,-0.4471,-0.447,-0.447,-0.4488,-0.4489,-0.449,-0.449,-0.4478,-0.4477,-0.4476,0,0,0,0,0,0,0,0,0,0,0,0,0,-0.4501,-0.4513,-0.4481,-0.4488,-0.4489,-0.4471,-0.447,-0.447,-0.4488,-0.4489,-0.449,-0.4491,-0.4479,-0.4477,-0.4476,-0.445,0,0,-0.4472,-0.4471,0,0,0,0,0,0,0,0,-0.4502,-0.45,-0.4487,-0.4487,-0.4488,-0.4482,-0.4478,-0.4463,-0.4488,-0.4488,-0.449,-0.4491,-0.4478,-0.4477,-0.4473,-0.4449,-0.4449,-0.4472,-0.4471,-0.4471,-0.447,0,0,0,0,0,0,0,-0.4502,-0.45,-0.4477,-0.4487,-0.4487,-0.4491,-0.4491,-0.4475,-0.4478,-0.4488,-0.4489,-0.4488,-0.4479,-0.4474,-0.4473,-0.4449,-0.4472,-0.4471,-0.447,-0.4469,-0.4402,-0.4401,0,0,0,0,0,0,-0.4503,-0.4501,-0.4477,-0.4476,-0.4497,-0.449,-0.4489,-0.4483,-0.4478,-0.4479,-0.4487,-0.4489,-0.4476,-0.4475,-0.4473,-0.4441,-0.4471,-0.4469,-0.4469,-0.4403,-0.4402,-0.4401,0,0,0,0,0,0,-0.4503,-0.45,-0.4477,-0.4489,-0.4486,-0.4489,-0.4481,-0.4482,-0.4478,-0.4478,-0.4478,-0.4482,-0.4477,-0.4475,-0.4455,-0.4441,-0.4469,-0.4468,-0.4404,-0.4403,-0.4402,-0.4378,0,0,0,0,0,0,-0.4504,-0.45,-0.4491,-0.4489,-0.4486,-0.446,-0.448,-0.4481,-0.4476,-0.4478,-0.4473,-0.4473,-0.4477,-0.4457,-0.4454,-0.444,-0.4466,-0.4406,-0.4404,-0.4402,-0.438,-0.4376,-0.4373,0,0,0,0,0,-0.4505,-0.4484,-0.449,-0.4487,-0.4474,-0.446,-0.4458,-0.4463,-0.4474,-0.4464,-0.4465,-0.4474,-0.4444,-0.4455,-0.4452,-0.4437,-0.4407,-0.4404,-0.4402,-0.4382,-0.4377,-0.4373,0,0,0,0,0,0,-0.4484,-0.4484,-0.4491,-0.4468,-0.4464,-0.4463,-0.445,-0.4458,-0.445,-0.4452,-0.4459,-0.4457,-0.4437,-0.4435,-0.4448,-0.4411,-0.4427,-0.4424,-0.4413,-0.4408,-0.4404,-0.4404,-0.4465,0,0,0,0,0,-0.4477,-0.4466,-0.4466,-0.4447,-0.4444,-0.4448,-0.4442,-0.4446,-0.4442,-0.444,-0.4439,-0.4433,-0.4423,-0.4415,-0.4406,-0.4381,-0.438,-0.4369,-0.4365,-0.4362,-0.4359,-0.4345,-0.434,-0.4394,-0.4394,-0.4394,0,0,-0.4461,-0.446,-0.4453,-0.4442,-0.4439,-0.4427,-0.4446,-0.4432,-0.4423,-0.4438,-0.4419,-0.4418,-0.4413,-0.4391,-0.4381,-0.4389,-0.4344,-0.4359,-0.4356,-0.4355,-0.4342,-0.4337,-0.4332,-0.4392,-0.4392,-0.4393,0,0,-0.4427,-0.4426,-0.4409,-0.4406,-0.4402,-0.4404,-0.44,-0.4398,-0.4398,-0.438,-0.439,-0.438,-0.4361,-0.4357,-0.4352,-0.4317,-0.4325,-0.4314,-0.4294,-0.428,-0.4276,-0.4272,-0.4259,-0.4254,-0.4311,-0.4311,-0.4311,0,-0.4409,-0.4392,-0.4399,-0.4385,-0.438,-0.4393,-0.4376,-0.4373,-0.4365,-0.4361,-0.437,-0.4348,-0.4345,-0.4322,-0.4313,-0.4309,-0.4304,-0.4314,-0.4276,-0.4272,-0.4269,-0.4256,-0.4251,-0.431,-0.431,-0.431,-0.431,0,-0.4368,-0.4357,-0.4343,-0.4336,-0.433,-0.4314,-0.4319,-0.4312,-0.4317,-0.4319,-0.43,-0.4298,-0.4288,-0.4283,-0.4288,-0.426,-0.4265,-0.4275,-0.4291,-0.4262,-0.425,-0.4246,-0.4308,-0.4308,-0.4309,-0.4309,0,0,-0.4319,-0.4318,-0.4312,-0.4309,-0.4306,-0.4297,-0.4282,-0.4272,-0.4266,-0.426,-0.4247,-0.4232,-0.4241,-0.4236,-0.4241,-0.4229,-0.4201,-0.4241,-0.4241,-0.4232,-0.4169,-0.4161,-0.4155,-0.4207,-0.4206,-0.4205,-0.417,0,-0.4285,-0.426,-0.4266,-0.4241,-0.4229,-0.4242,-0.4229,-0.4225,-0.4227,-0.4217,-0.4218,-0.4207,-0.422,-0.4217,-0.4206,-0.4207,-0.4188,-0.4209,-0.4194,-0.4193,-0.4194,-0.4149,-0.4141,-0.4107,-0.4165,-0.4164,-0.4164,0,-0.4241,-0.4235,-0.4208,-0.4207,-0.4202,-0.419,-0.4182,-0.4173,-0.4169,-0.4171,-0.4165,-0.4173,-0.4157,-0.4174,-0.4153,-0.4167,-0.4162,-0.4161,-0.416,-0.4157,-0.4176,-0.4145,-0.4097,-0.4091,-0.4157,-0.4157,-0.4158,0,-0.4207,-0.4192,-0.4174,-0.4171,-0.4169,-0.416,-0.4159,-0.4156,-0.415,-0.4143,-0.4139,-0.413,-0.4125,-0.4118,-0.4123,-0.4135,-0.41,-0.4118,-0.4101,-0.41,-0.4092,-0.4092,-0.4041,-0.409,-0.409,-0.409,-0.409,0,-0.4167,-0.415,-0.4158,-0.4147,-0.4128,-0.4136,-0.4117,-0.4118,-0.4115,-0.4104,-0.4115,-0.4104,-0.4111,-0.4101,-0.4104,-0.4086,-0.4083,-0.4084,-0.4085,-0.4082,-0.4082,-0.4077,-0.4079,-0.4089,-0.4089,-0.4089,-0.4089,0,-0.4125,-0.413,-0.4111,-0.4111,-0.4111,-0.4097,-0.4097,-0.4086,-0.4089,-0.4074,-0.4071,-0.4075,-0.4063,-0.4068,-0.4055,-0.4057,-0.4033,-0.4038,-0.4035,-0.4035,-0.4018,-0.4019,-0.3961,-0.3953,-0.4008,-0.4008,-0.4007,0,-0.4099,-0.4086,-0.4085,-0.4079,-0.4077,-0.4066,-0.406,-0.4068,-0.4061,-0.4056,-0.4046,-0.4035,-0.4027,-0.4008,-0.4009,-0.3999,-0.4003,-0.3984,-0.4002,-0.3999,-0.4002,-0.4002,-0.4,-0.3979,-0.3979,-0.3978,-0.3978,0,-0.4051,-0.4054,-0.4046,-0.4038,-0.4031,-0.4025,-0.402,-0.4014,-0.4022,-0.4014,-0.4002,-0.3996,-0.3984,-0.3973,-0.3964,-0.3963,-0.3971,-0.3972,-0.3968,-0.3964,-0.3962,-0.3962,-0.4024,-0.3973,-0.3974,-0.3974,-0.3974,-0.3974,-0.4016,-0.4005,-0.4002,-0.3992,-0.399,-0.3985,-0.3975,-0.3976,-0.3967,-0.3958,-0.3963,-0.395,-0.3946,-0.3936,-0.3933,-0.3922,-0.393,-0.3923,-0.3921,-0.3919,-0.3916,-0.3965,-0.3921,-0.3921,-0.3921,-0.3921,-0.3921,0,-0.3968,-0.3967,-0.3958,-0.3951,-0.3943,-0.3953,-0.3948,-0.3941,-0.3929,-0.3925,-0.3917,-0.3904,-0.3894,-0.3894,-0.3885,-0.3876,-0.388,-0.3873,-0.3873,-0.3872,-0.3911,-0.3915,-0.387,-0.387,-0.387,-0.387,-0.387,-0.387,-0.3942,-0.3924,-0.3927,-0.3908,-0.3907,-0.3894,-0.3891,-0.3886,-0.3883,-0.3868,-0.386,-0.3861,-0.3859,-0.3849,-0.384,-0.384,-0.3836,-0.3828,-0.3829,-0.3865,-0.387,-0.3875,-0.3879,-0.3827,-0.3827,-0.3792,-0.3791,-0.3791]}]]